Weather History for Mykolaiv, Ukraine

Change the Weather History Date:

Thursday, February 7, 2013

  Actual Average Record
Temperature  
Mean Temperature 42 °F -  
Max Temperature 48 °F - - ()
Min Temperature 35 °F - - ()
Degree Days  
Heating Degree Days 24    
Moisture  
Dew Point 41 °F    
Average Humidity 95    
Maximum Humidity 100    
Minimum Humidity 81    
Precipitation  
Precipitation 0.00 in - - ()
Sea Level Pressure  
Sea Level Pressure 29.73 in    
Wind  
Wind Speed 10 mph ()    
Max Wind Speed 13 mph    
Max Gust Speed -    
Visibility 2.7 miles    
Events Fog , Rain    
T = Trace of Precipitation, MM = Missing Value Source: Averaged Metar Reports

Daily Weather History Graph

Daily Weather History Graph

Search for Another Location

Airport:

Trip Planner

Search our weather history database for the weather conditions in past years. The results will help you decide how hot, cold, wet, or windy it might be!

Date:

Astronomy

Feb. 07, 2013 Rise Set
Actual Time 7:09 AM EET 5:04 PM EET
Civil Twilight 6:37 AM EET 5:36 PM EET
Nautical Twilight 6:01 AM EET 6:12 PM EET
Astronomical Twilight 5:25 AM EET 6:47 PM EET
Moon 4:37 AM EET (2/7) 1:59 PM EET (2/7)
Length of Visible Light 10h 59m
Length of Day
9h 54m
Waning Crescent, 11% of the Moon is Illuminated
Feb 7
Waning Crescent
Feb 10
New
Feb 17
First Quarter
Feb 25
Full
Mar 4
Last Quarter

Hourly Weather History & Observations

Time (EET) Temp. Windchill Dew Point Humidity Pressure Visibility Wind Dir Wind Speed Gust Speed Precip Events Conditions
6:00 AM 35.6 °F 27.7 °F 35.6 °F 100% 29.74 in 0.1 mi East 11.2 mph - N/A Fog Fog
6:30 AM 35.6 °F 28.7 °F 35.6 °F 100% 29.74 in 0.3 mi East 8.9 mph - N/A Fog Fog
7:00 AM 35.6 °F 28.7 °F 35.6 °F 100% 29.74 in 0.6 mi East 8.9 mph - N/A Fog Light Drizzle
7:30 AM 35.6 °F 28.7 °F 35.6 °F 100% 29.74 in 0.5 mi East 8.9 mph - N/A Fog Light Drizzle
8:00 AM 35.6 °F 28.7 °F 35.6 °F 100% 29.74 in 0.5 mi East 8.9 mph - N/A Fog Light Drizzle
8:15 AM 35.6 °F 27.7 °F 35.6 °F 100% 29.74 in 1.1 mi East 11.2 mph - N/A   Light Drizzle
8:30 AM 37.4 °F 30.9 °F 35.6 °F 93% 29.74 in 1.6 mi SE 8.9 mph - N/A   Overcast
9:00 AM 37.4 °F 32.2 °F 35.6 °F 93% 29.74 in 1.6 mi ESE 6.7 mph - N/A   Light Drizzle
9:30 AM 39.2 °F 33.1 °F 37.4 °F 93% 29.74 in 0.9 mi ESE 8.9 mph - N/A   Light Drizzle
9:37 AM 39.2 °F 33.1 °F 37.4 °F 93% 29.74 in 0.6 mi ESE 8.9 mph - N/A   Light Drizzle
10:00 AM 39.2 °F 33.1 °F 39.2 °F 100% 29.74 in 0.6 mi ESE 8.9 mph - N/A Fog Light Drizzle
10:30 AM 39.2 °F 32.2 °F 39.2 °F 100% 29.74 in 0.4 mi ESE 11.2 mph - N/A Fog Fog
11:00 AM 41.0 °F 34.4 °F 41.0 °F 100% 29.74 in 0.4 mi ESE 11.2 mph - N/A Fog Fog
11:30 AM 41.0 °F 34.4 °F 41.0 °F 100% 29.74 in 0.4 mi SE 11.2 mph - N/A Fog Fog
11:47 AM 41.0 °F 33.6 °F 41.0 °F 100% 29.74 in 0.5 mi SE 13.4 mph - N/A Fog Fog
12:00 PM 42.8 °F 36.7 °F 42.8 °F 100% 29.74 in 0.6 mi SE 11.2 mph - N/A Fog Fog
12:23 PM 42.8 °F 35.9 °F 42.8 °F 100% 29.71 in 0.9 mi SE 13.4 mph - N/A Rain Light Rain Showers
12:30 PM 42.8 °F 35.9 °F 42.8 °F 100% 29.74 in 1.1 mi SE 13.4 mph - N/A Rain Light Rain Showers
1:00 PM 42.8 °F 36.7 °F 42.8 °F 100% 29.74 in 2.5 mi SE 11.2 mph - N/A   Mostly Cloudy
1:30 PM 42.8 °F 36.7 °F 42.8 °F 100% 29.71 in 2.5 mi SE 11.2 mph - N/A   Mostly Cloudy
2:00 PM 44.6 °F 38.2 °F 42.8 °F 93% 29.74 in 2.5 mi SE 13.4 mph - N/A   Mostly Cloudy
2:30 PM 44.6 °F 38.2 °F 42.8 °F 93% 29.74 in 2.5 mi SE 13.4 mph - N/A   Mostly Cloudy
3:00 PM 44.6 °F 38.2 °F 42.8 °F 93% 29.74 in 5.0 mi SE 13.4 mph - N/A   Overcast
3:30 PM 44.6 °F 38.2 °F 44.6 °F 100% 29.74 in 5.0 mi SE 13.4 mph - N/A   Overcast
4:00 PM 44.6 °F 38.2 °F 44.6 °F 100% 29.74 in 3.7 mi SE 13.4 mph - N/A Rain Light Rain Showers
4:30 PM 46.4 °F 41.2 °F 44.6 °F 93% 29.74 in 3.7 mi SE 11.2 mph - N/A   Overcast
5:00 PM 46.4 °F 42.0 °F 44.6 °F 93% 29.71 in 6.2 mi SE 8.9 mph - N/A   Overcast
5:26 PM 46.4 °F 41.2 °F 44.6 °F 93% 29.71 in 6.2 mi SE 11.2 mph - N/A   Overcast
5:30 PM 46.4 °F 41.2 °F 44.6 °F 93% 29.71 in 6.2 mi SE 11.2 mph - N/A   Overcast
5:31 PM 46.4 °F 41.2 °F 44.6 °F 93% 29.71 in 6.2 mi SE 11.2 mph - N/A   Overcast
5:37 PM 46.4 °F 41.2 °F 44.6 °F 93% 29.74 in 6.2 mi SE 11.2 mph - N/A   Overcast
6:00 PM 48.2 °F - 42.8 °F 82% 29.74 in 6.2 mi SSE 13.4 mph - N/A   Overcast
6:30 PM 46.4 °F 41.2 °F 42.8 °F 87% 29.74 in 6.2 mi SSE 11.2 mph - N/A   Mostly Cloudy
7:00 PM 46.4 °F 41.2 °F 41.0 °F 81% 29.74 in 6.2 mi SSE 11.2 mph - N/A   Mostly Cloudy
8:00 PM 46.4 °F 41.2 °F 41.0 °F 81% 29.74 in 6.2 mi SE 11.2 mph - N/A   Overcast